Rifle, CO

11:20 PM MST on November 22, 2017 (GMT -0700)
Garfield County Regional

Weather History for KRIL - September, 2012

Change the Weather History Date:

Wednesday, September 5, 2012

  Actual Average Record
Temperature  
Mean Temperature 67 °F 65 °F  
Max Temperature 88 °F 82 °F 95 °F (1933)
Min Temperature 46 °F 48 °F 33 °F (1926)
Degree Days  
Heating Degree Days 0 2  
Month to date heating degree days 0 6  
Since 1 July heating degree days 2 13  
Cooling Degree Days 2 2  
Month to date cooling degree days 19 10  
Year to date cooling degree days 801 526  
Growing Degree Days 16 (Base 50)    
Moisture  
Dew Point 24 °F    
Average Humidity 26    
Maximum Humidity 44    
Minimum Humidity 8    
Precipitation  
Precipitation 0.00 in 0.05 in 0.92 in (1970)
Month to date precipitation T 0.24  
Year to date precipitation 5.67 9.21  
Sea Level Pressure  
Sea Level Pressure 29.99 in    
Wind  
Wind Speed 4 mph (ENE)    
Max Wind Speed 15 mph    
Max Gust Speed 21 mph    
Visibility 10 miles    
Events      
T = Trace of Precipitation, MM = Missing Value Source: NWS Daily Summary

Daily Weather History Graph

Daily Weather History Graph

Search for Another Location

Airport or City:

Trip Planner

Search our weather history database for the weather conditions in past years. The results will help you decide how hot, cold, wet, or windy it might be!

Date:

Astronomy

Sep. 05, 2012 Rise Set
Actual Time 6:43 AM MDT 7:34 PM MDT
Civil Twilight 6:16 AM MDT 8:01 PM MDT
Nautical Twilight 5:43 AM MDT 8:34 PM MDT
Astronomical Twilight 5:09 AM MDT 9:07 PM MDT
Moon 10:08 PM MDT (9/5) 11:48 AM MDT (9/5)
Length of Visible Light 13h 45m
Length of Day
12h 51m
Waning Gibbous, 75% of the Moon is Illuminated
Sep 5
Waning Gibbous
Sep 8
Last Quarter
Sep 15
New
Sep 22
First Quarter
Sep 29
Full

Hourly Weather History & Observations

Time (MDT) Temp. Dew Point Humidity Pressure Visibility Wind Dir Wind Speed Gust Speed Precip Events Conditions
12:53 AM 57.9 °F 27.0 °F 31% 30.01 in 10.0 mi East 6.9 mph - N/A   Clear
1:53 AM 55.9 °F 26.1 °F 32% 29.99 in 10.0 mi ESE 4.6 mph - N/A   Clear
2:53 AM 52.0 °F 30.0 °F 43% 30.01 in 10.0 mi Calm Calm - N/A   Clear
3:53 AM 51.1 °F 28.0 °F 41% 30.03 in 10.0 mi Calm Calm - N/A   Clear
4:53 AM 50.0 °F 26.1 °F 39% 30.04 in 10.0 mi Calm Calm - N/A   Clear
5:53 AM 48.9 °F 25.0 °F 39% 30.06 in 10.0 mi Calm Calm - N/A   Clear
6:53 AM 46.0 °F 25.0 °F 44% 30.09 in 10.0 mi Calm Calm - N/A   Clear
7:53 AM 51.1 °F 30.9 °F 46% 30.11 in 10.0 mi Calm Calm - N/A   Clear
8:53 AM 57.0 °F 30.0 °F 36% 30.11 in 10.0 mi Calm Calm - N/A   Clear
9:53 AM 63.0 °F 33.1 °F 33% 30.09 in 10.0 mi Variable 3.5 mph - N/A   Clear
10:53 AM 71.1 °F 30.9 °F 23% 30.06 in 10.0 mi North 3.5 mph - N/A   Clear
11:53 AM 75.9 °F 27.0 °F 16% 30.03 in 10.0 mi NNE 3.5 mph - N/A   Clear
12:53 PM 82.9 °F 25.0 °F 12% 29.99 in 10.0 mi Variable 3.5 mph - N/A   Clear
1:53 PM 84.9 °F 19.0 °F 9% 29.96 in 10.0 mi ESE 6.9 mph - N/A   Clear
2:53 PM 86.0 °F 19.9 °F 9% 29.94 in 10.0 mi NE 5.8 mph - N/A   Clear
3:53 PM 86.0 °F 19.0 °F 8% 29.91 in 10.0 mi Calm Calm - N/A   Clear
4:53 PM 86.0 °F 18.0 °F 8% 29.90 in 10.0 mi Variable 4.6 mph - N/A   Clear
5:53 PM 86.0 °F 19.0 °F 8% 29.89 in 10.0 mi WNW 12.7 mph 16.1 mph N/A   Clear
6:53 PM 84.0 °F 15.1 °F 8% 29.91 in 10.0 mi NW 12.7 mph 19.6 mph N/A   Clear
7:53 PM 75.9 °F 14.0 °F 10% 29.92 in 10.0 mi WNW 5.8 mph - N/A   Clear
8:53 PM 69.1 °F 15.1 °F 13% 29.95 in 10.0 mi ESE 5.8 mph - N/A   Clear
9:53 PM 66.0 °F 21.0 °F 18% 29.95 in 10.0 mi SE 5.8 mph - N/A   Clear
10:53 PM 63.0 °F 21.9 °F 21% 29.96 in 10.0 mi ESE 11.5 mph - N/A   Clear
11:53 PM 61.0 °F 21.0 °F 21% 29.96 in 10.0 mi Calm Calm - N/A   Clear